Wind_Speed
34 34 34 34 35 36 34 29 27 26 25 24 23 23 23 22 20 19 17 16 15 14 14 13 12 12 11 10 10 9 9 8 8 7 7 6 6 6 6 6 5 5 5 5 5 5 6 6 7
36 37 37 37 38 37 34 30 29 27 26 26 26 26 25 24 22 20 19 18 16 15 15 14 13 13 12 12 11 11 10 10 9 9 8 8 7 7 7 7 6 6 6 6 6 6 7 7 8
39 39 40 40 40 37 33 31 30 30 29 29 29 28 27 25 24 22 21 20 19 17 17 16 15 14 13 13 12 12 12 11 11 10 9 9 8 8 8 8 8 7 7 7 7 8 8 8 9
42 42 43 44 42 39 36 33 33 33 32 32 31 31 30 28 26 24 23 22 21 19 18 18 17 16 15 14 14 14 13 13 12 12 11 10 10 9 9 9 9 9 9 9 9 9 9 10 10
44 45 46 46 43 40 38 36 36 36 35 34 33 33 31 29 28 27 25 24 23 21 20 20 19 18 17 16 15 15 15 14 14 13 13 12 12 11 11 10 10 10 11 11 11 11 11 12 12
46 47 48 47 44 41 40 39 38 37 37 37 36 35 33 32 30 29 27 26 25 23 22 22 21 20 19 18 17 16 16 15 15 14 14 13 13 13 13 12 12 12 12 12 13 13 14 14 14
47 48 48 46 45 44 42 41 41 39 39 38 38 38 36 34 32 31 30 29 27 26 24 24 23 22 21 20 19 18 17 16 16 15 15 15 15 15 15 14 14 14 14 14 15 15 15 15 15
46 48 48 47 46 45 43 43 43 42 41 40 40 40 38 36 34 33 32 31 30 28 26 26 25 24 23 22 21 19 18 18 17 17 17 16 16 16 16 16 16 16 16 16 16 17 17 17 17
47 49 48 46 46 44 43 44 44 44 43 43 42 41 39 38 36 35 34 33 32 30 28 28 27 26 25 23 22 21 20 19 19 18 18 18 18 18 18 17 17 17 17 17 18 18 18 18 19
47 49 47 45 44 44 43 43 44 44 45 44 44 43 42 40 38 37 36 35 34 32 30 29 29 28 27 26 24 23 22 21 20 20 19 19 19 19 19 18 18 18 18 19 19 19 19 20 21
46 46 46 45 44 44 43 43 44 45 45 45 44 43 43 42 40 39 38 37 35 34 32 32 30 29 29 28 27 25 24 24 23 22 22 21 21 21 21 20 20 20 20 20 21 21 21 22 23
45 43 44 44 44 44 43 43 44 45 45 45 44 43 43 42 41 40 40 38 36 35 34 34 33 31 30 30 29 27 26 26 25 24 24 23 23 23 22 23 23 22 22 23 23 23 24 24 25
44 43 43 43 43 44 44 44 45 44 45 45 44 43 43 43 42 41 41 39 38 38 36 35 35 33 32 31 31 30 28 27 27 26 26 25 25 25 25 25 25 25 25 25 25 26 26 27 27
41 42 42 43 43 43 44 44 45 44 44 45 45 44 44 44 43 42 41 40 39 39 38 37 36 36 34 33 32 32 31 29 28 29 28 28 28 28 27 27 27 27 27 27 28 28 28 29 29
38 39 41 42 42 42 44 45 45 45 44 44 45 45 44 45 44 43 41 40 40 39 39 39 38 38 37 36 35 34 33 32 31 30 30 30 30 30 30 30 30 30 30 30 30 31 31 32 32
36 38 39 40 41 41 44 44 43 44 44 44 44 45 45 45 44 44 43 42 41 41 41 41 41 40 39 38 38 37 36 35 34 33 32 32 32 32 32 32 32 32 32 33 33 33 34 34 34
34 36 37 38 39 39 43 43 43 44 45 45 45 45 45 45 45 44 43 43 43 42 42 42 42 42 42 41 39 39 38 37 36 35 34 34 34 34 35 35 35 34 35 36 36 36 36 36 37
30 33 34 35 35 37 40 42 42 43 45 45 45 46 46 46 46 45 44 44 43 43 43 43 43 43 44 43 42 40 39 38 38 38 37 36 36 37 37 37 37 38 38 38 38 38 38 39 39
27 29 31 32 32 34 38 40 40 42 45 44 44 44 45 44 45 45 45 44 43 42 43 43 44 44 44 44 43 42 40 40 39 39 39 38 38 38 38 39 39 40 40 40 39 40 40 39 38
24 25 28 29 29 31 34 37 38 41 43 44 44 44 44 44 45 46 46 45 44 43 43 43 44 44 44 44 44 43 42 41 41 40 40 40 40 39 40 42 42 41 42 42 41 41 40 39 39
22 22 24 26 27 29 32 35 36 39 41 43 44 44 45 45 45 45 46 46 45 45 44 43 44 45 45 45 44 44 43 43 42 41 41 42 41 41 41 43 43 43 43 42 41 41 40 40 40
21 20 21 22 23 26 29 32 34 36 38 40 41 43 44 44 45 46 47 46 46 46 45 45 45 46 46 46 45 44 43 43 43 43 43 43 43 44 44 43 43 44 44 43 42 42 42 41 41
18 18 19 21 22 24 27 30 31 33 35 38 40 41 42 43 44 45 46 46 47 46 46 46 45 45 46 46 46 45 45 44 44 45 44 44 44 44 43 42 43 43 43 44 43 43 43 43 42
16 17 17 19 21 23 24 27 28 31 32 33 36 39 39 40 43 44 45 46 46 47 47 46 45 45 45 45 46 46 46 46 46 46 44 43 43 42 41 41 41 42 41 42 42 42 42 42 42
16 17 18 19 21 23 23 25 27 27 29 32 34 36 37 37 39 40 42 44 45 46 46 46 45 45 46 46 47 47 47 47 47 47 46 45 43 43 41 42 42 42 41 40 41 41 42 42 42
14 16 18 19 20 21 22 25 24 25 27 31 32 33 36 37 37 39 40 41 43 44 45 46 45 44 44 45 46 47 48 48 48 47 47 47 46 44 43 42 43 42 41 41 41 41 42 42 42
16 17 18 19 20 20 21 23 24 24 26 28 30 30 32 35 36 38 39 40 41 42 44 45 46 46 46 45 44 45 46 47 47 47 47 47 47 47 46 44 42 41 41 41 41 41 41 41 41
18 17 18 20 21 20 20 21 22 23 25 27 29 30 30 32 34 36 37 38 39 41 43 44 45 45 46 45 44 45 45 45 46 47 46 45 45 45 46 46 44 42 41 41 41 41 40 39 40
18 18 19 21 21 21 20 20 20 21 23 26 27 29 29 30 32 34 35 37 38 40 42 43 43 44 46 46 46 45 45 46 45 47 46 45 45 44 44 44 44 43 43 43 43 42 41 42 42
18 18 19 21 22 22 22 21 21 21 22 24 26 27 28 29 31 32 34 35 37 39 40 41 41 42 43 45 45 45 45 46 46 46 46 45 45 46 45 44 43 42 43 43 43 43 43 43 43
Wind_Direction
244 244 243 243 242 242 242 240 239 237 236 234 233 232 233 234 235 236 233 231 230 231 231 231 231 229 229 230 231 233 236 240 245 249 253 255 255 254 253 256 267 272 273 276 282 289 299 305 309
245 245 244 243 243 243 243 241 239 238 238 237 235 234 234 234 234 235 234 232 231 231 232 233 231 230 231 231 232 234 236 240 245 249 251 251 252 254 257 259 265 272 276 277 284 289 295 301 306
245 244 244 244 244 244 244 242 239 238 237 236 236 235 234 234 234 235 234 233 232 232 233 234 232 231 231 232 233 236 238 240 242 246 248 249 253 256 258 263 267 271 274 278 286 293 296 300 304
246 245 244 244 244 244 244 242 240 238 236 236 236 235 234 233 233 233 234 234 233 232 233 235 233 232 233 234 236 237 239 241 243 246 248 250 254 257 258 262 267 271 274 278 284 289 293 298 301
245 245 245 245 245 244 244 242 239 237 236 236 236 237 236 234 233 233 233 233 234 233 234 235 235 235 235 237 239 240 241 242 244 247 248 250 254 257 261 264 268 272 275 277 281 285 290 295 297
245 245 245 245 245 244 243 241 239 237 236 236 235 236 236 234 233 233 233 234 235 235 235 236 235 236 237 238 240 242 243 242 243 245 246 250 254 259 263 265 270 274 277 279 282 285 288 291 293
245 245 246 246 244 242 241 239 238 237 236 236 236 236 235 233 233 233 233 233 235 235 236 236 236 237 238 238 240 241 241 241 242 244 247 251 256 261 264 267 270 274 278 280 283 285 287 289 292
244 245 245 244 243 241 239 238 237 236 235 235 236 235 234 232 232 233 233 233 234 235 235 236 236 236 237 239 240 240 240 242 244 246 249 252 256 261 265 267 270 273 277 280 283 284 288 290 291
243 243 243 243 243 241 238 236 235 234 233 233 234 234 234 232 232 232 233 234 235 235 234 235 236 235 235 236 240 241 241 243 245 248 250 253 257 261 264 266 269 273 276 278 280 284 288 290 291
242 242 242 242 242 240 237 235 234 233 232 231 232 233 233 232 231 232 233 234 235 235 235 235 236 235 236 236 238 240 241 243 245 248 251 254 257 261 264 266 269 273 277 278 279 283 286 288 290
242 242 240 239 239 237 234 233 232 232 230 230 231 232 232 230 230 232 233 234 235 235 235 235 236 236 237 236 237 238 240 241 244 248 251 254 257 260 264 266 269 273 277 279 280 283 285 287 289
240 239 238 237 236 234 231 230 230 230 230 230 230 231 232 231 232 232 233 233 234 234 234 235 236 235 236 236 237 239 240 242 244 247 251 255 257 261 265 267 270 273 277 279 280 282 284 286 288
237 236 235 234 234 234 231 228 228 229 229 230 230 230 230 231 232 233 233 233 234 234 234 234 234 235 236 237 238 239 242 244 245 248 251 255 257 261 263 267 270 273 276 279 281 282 283 285 286
235 234 233 233 233 233 230 227 228 227 228 229 230 230 230 230 230 231 231 231 233 233 233 232 233 234 235 237 239 241 242 245 248 251 253 256 258 260 263 267 269 271 274 277 279 281 283 285 286
233 233 231 231 233 233 231 228 229 227 229 229 230 230 230 230 230 231 231 232 234 233 233 233 233 234 235 236 239 241 243 246 248 249 253 256 258 260 263 267 270 271 273 276 277 280 282 284 286
233 232 231 230 233 233 232 230 229 229 229 230 231 230 229 230 231 232 232 232 233 233 233 234 234 234 235 237 239 241 243 245 248 250 254 257 260 262 265 267 270 272 274 276 277 279 281 283 285
233 231 231 231 232 233 233 231 229 229 230 230 230 230 229 230 231 232 232 232 232 233 233 234 234 235 236 238 240 242 243 245 248 252 255 258 261 263 266 268 271 272 273 275 276 278 280 282 283
234 232 231 231 232 234 235 233 231 231 230 229 230 230 230 230 230 230 230 232 233 233 234 233 234 235 237 238 240 243 244 245 248 252 256 259 261 264 266 268 271 273 274 276 276 277 280 282 283
234 233 229 231 234 236 235 234 233 232 230 229 230 231 231 229 227 229 230 232 234 233 234 234 235 236 238 240 241 244 247 248 251 253 256 260 263 265 267 269 271 274 276 278 279 280 281 282 282
231 231 231 232 235 237 236 234 233 232 231 231 231 231 230 230 229 230 232 233 236 235 234 236 237 238 239 241 243 245 248 250 252 254 257 261 264 265 267 269 271 273 276 278 279 280 281 281 282
232 232 234 234 238 238 237 234 233 232 231 231 230 230 231 233 233 233 233 234 236 237 237 238 239 240 241 243 244 246 248 251 254 257 260 262 264 266 268 270 271 273 274 275 276 278 280 280 281
229 233 235 236 240 239 237 236 232 230 231 230 230 231 232 234 235 234 235 236 237 239 240 240 240 241 243 244 245 247 249 253 255 258 260 262 264 266 269 270 271 271 271 272 275 277 278 279 279
230 235 239 240 241 241 237 237 233 229 229 228 230 231 233 236 236 236 236 237 237 239 240 241 241 243 244 245 246 247 249 252 255 258 262 263 265 266 268 268 269 270 270 272 274 275 277 278 279
234 235 237 240 243 241 235 237 234 230 230 231 232 233 235 237 236 236 236 237 238 238 239 241 242 244 245 246 248 249 250 251 254 258 261 263 265 266 267 267 268 269 271 273 275 275 276 278 278
232 235 235 238 242 242 239 240 237 234 232 233 236 235 236 239 237 235 236 237 238 239 240 241 242 244 246 247 248 250 250 252 255 258 261 264 266 266 265 267 268 270 271 273 274 274 275 277 278
237 238 235 238 241 242 243 242 239 236 236 235 238 239 238 239 239 239 239 240 242 241 241 242 243 245 246 248 248 249 250 253 256 258 261 263 263 265 265 268 268 270 272 273 275 276 277 278 279
239 239 239 241 244 247 247 243 242 242 240 238 239 240 241 241 242 243 244 245 246 243 242 243 243 245 248 250 250 251 252 253 255 257 260 262 262 263 265 268 268 269 272 273 273 276 277 279 280
241 241 243 245 245 250 250 245 246 247 246 244 243 243 243 243 244 245 246 246 247 247 245 244 244 246 248 250 251 252 253 255 257 257 258 260 261 263 265 267 266 268 271 272 274 275 277 279 280
241 244 244 248 251 253 253 251 252 253 251 249 248 246 245 246 247 247 247 246 248 248 247 244 244 246 248 250 251 253 255 256 257 257 258 259 261 263 264 266 267 270 271 272 274 275 276 278 279
243 247 249 251 253 256 259 257 255 257 255 252 250 248 248 248 248 248 247 248 248 248 246 245 244 246 248 249 250 253 254 255 256 257 258 259 261 263 264 266 268 270 271 273 274 276 277 279 280
Height
5830 5832 5834 5836 5837 5838 5841 5846 5850 5853 5854 5856 5857 5858 5859 5862 5865 5868 5868 5868 5869 5870 5871 5872 5873 5874 5875 5875 5876 5877 5878 5879 5879 5880 5880 5881 5881 5881 5881 5881 5881 5880 5880 5880 5879 5879 5878 5877 5877
5823 5825 5827 5828 5829 5831 5837 5842 5845 5848 5850 5851 5852 5854 5855 5858 5861 5863 5864 5865 5867 5868 5869 5870 5871 5872 5873 5873 5874 5876 5876 5877 5878 5878 5879 5879 5879 5880 5880 5880 5879 5879 5879 5878 5878 5878 5877 5876 5875
5815 5817 5819 5819 5821 5825 5832 5837 5840 5842 5844 5845 5847 5849 5851 5854 5857 5859 5860 5862 5864 5865 5866 5867 5869 5870 5871 5872 5873 5874 5875 5875 5876 5877 5877 5878 5878 5878 5878 5878 5878 5878 5878 5877 5877 5876 5876 5875 5874
5806 5808 5809 5811 5813 5820 5826 5830 5833 5835 5837 5839 5841 5843 5846 5850 5852 5854 5856 5858 5860 5862 5863 5864 5866 5867 5868 5869 5870 5871 5872 5873 5874 5875 5875 5876 5876 5877 5877 5877 5877 5876 5876 5876 5876 5875 5874 5873 5873
5795 5797 5798 5800 5806 5813 5818 5821 5824 5826 5829 5832 5835 5838 5841 5845 5847 5850 5852 5854 5856 5858 5860 5861 5863 5864 5866 5867 5868 5869 5870 5871 5872 5872 5873 5874 5874 5875 5875 5875 5875 5875 5875 5874 5874 5873 5872 5872 5871
5784 5786 5788 5791 5798 5804 5809 5812 5815 5818 5821 5824 5828 5831 5835 5838 5842 5845 5847 5849 5852 5854 5856 5857 5859 5861 5863 5864 5865 5866 5867 5868 5869 5870 5870 5871 5872 5872 5873 5873 5873 5873 5872 5872 5871 5871 5870 5869 5868
5773 5775 5778 5783 5789 5794 5799 5802 5806 5809 5812 5816 5820 5824 5828 5832 5836 5839 5842 5844 5847 5849 5851 5853 5855 5857 5859 5860 5862 5863 5864 5865 5866 5867 5868 5869 5869 5870 5870 5870 5870 5870 5870 5869 5869 5868 5867 5867 5866
5761 5764 5766 5772 5777 5783 5789 5792 5796 5800 5804 5808 5811 5816 5821 5826 5829 5833 5836 5839 5841 5844 5846 5849 5851 5853 5855 5857 5858 5859 5861 5862 5863 5864 5865 5866 5866 5867 5867 5867 5867 5867 5867 5866 5866 5865 5864 5863 5863
5748 5752 5755 5761 5767 5772 5778 5781 5785 5789 5794 5798 5802 5808 5813 5818 5822 5826 5829 5832 5835 5838 5841 5843 5846 5848 5851 5852 5854 5856 5857 5858 5859 5860 5861 5862 5863 5863 5863 5863 5863 5863 5863 5863 5862 5862 5861 5860 5859
5736 5739 5745 5752 5757 5761 5766 5771 5775 5779 5784 5789 5794 5799 5804 5809 5814 5818 5822 5826 5829 5832 5835 5838 5841 5843 5846 5848 5850 5851 5853 5854 5855 5856 5857 5858 5859 5859 5860 5860 5860 5859 5859 5859 5858 5857 5857 5856 5855
5725 5729 5736 5740 5745 5750 5755 5760 5764 5768 5774 5780 5786 5791 5795 5800 5806 5811 5815 5819 5823 5826 5829 5832 5835 5838 5841 5843 5845 5846 5848 5849 5851 5852 5853 5854 5855 5855 5855 5856 5855 5855 5855 5855 5854 5853 5853 5852 5851
5713 5719 5724 5729 5734 5739 5744 5749 5754 5759 5766 5771 5776 5782 5787 5792 5797 5802 5807 5811 5815 5819 5822 5826 5829 5832 5835 5837 5839 5841 5842 5844 5845 5847 5848 5849 5850 5850 5851 5851 5851 5851 5850 5850 5849 5848 5848 5847 5846
5702 5708 5713 5719 5724 5729 5734 5739 5745 5750 5756 5762 5767 5773 5778 5784 5789 5794 5799 5803 5807 5811 5815 5819 5822 5826 5829 5831 5833 5835 5837 5839 5840 5842 5843 5844 5845 5845 5846 5846 5846 5845 5845 5844 5844 5843 5842 5841 5840
5693 5699 5704 5709 5714 5719 5725 5731 5736 5743 5747 5753 5759 5765 5770 5775 5781 5786 5790 5795 5799 5804 5807 5811 5815 5819 5822 5825 5827 5829 5831 5833 5835 5836 5837 5838 5839 5839 5840 5840 5840 5840 5839 5839 5838 5837 5836 5835 5834
5685 5690 5695 5700 5705 5710 5716 5722 5728 5735 5739 5745 5751 5756 5762 5767 5772 5778 5782 5787 5791 5796 5800 5804 5808 5811 5814 5817 5820 5822 5825 5827 5828 5829 5831 5832 5832 5833 5833 5834 5833 5833 5833 5832 5831 5830 5829 5829 5827
5677 5681 5686 5692 5697 5702 5707 5714 5721 5725 5730 5736 5741 5747 5753 5758 5764 5769 5774 5779 5783 5787 5792 5796 5800 5803 5806 5810 5812 5815 5817 5820 5821 5822 5823 5825 5826 5826 5826 5827 5827 5826 5826 5825 5824 5823 5823 5821 5820
5669 5673 5679 5686 5690 5694 5698 5706 5712 5716 5722 5727 5732 5738 5744 5750 5755 5760 5765 5770 5774 5779 5784 5788 5792 5795 5799 5802 5804 5807 5809 5811 5813 5815 5816 5817 5818 5819 5819 5819 5819 5818 5818 5817 5816 5815 5814 5814 5812
5664 5668 5673 5678 5683 5687 5691 5698 5703 5707 5712 5718 5724 5730 5735 5741 5746 5751 5756 5761 5765 5770 5774 5779 5783 5787 5790 5793 5796 5798 5801 5803 5805 5807 5808 5808 5809 5810 5810 5810 5810 5810 5809 5808 5808 5807 5805 5804 5803
5661 5664 5668 5673 5677 5680 5684 5690 5695 5699 5704 5709 5715 5721 5726 5733 5738 5742 5748 5753 5757 5761 5765 5770 5774 5778 5781 5785 5788 5791 5793 5795 5797 5798 5799 5800 5800 5801 5801 5801 5801 5801 5800 5799 5798 5797 5796 5795 5793
5656 5660 5664 5668 5671 5674 5678 5683 5687 5690 5696 5701 5707 5713 5719 5724 5729 5734 5740 5744 5749 5752 5757 5762 5766 5769 5773 5776 5779 5782 5785 5787 5788 5789 5790 5791 5792 5792 5792 5792 5792 5791 5791 5790 5789 5788 5787 5785 5784
5654 5657 5660 5663 5666 5668 5671 5675 5679 5683 5688 5693 5699 5704 5710 5715 5721 5726 5731 5736 5740 5744 5749 5752 5756 5760 5763 5767 5770 5773 5775 5778 5779 5781 5782 5782 5782 5782 5782 5783 5782 5782 5781 5780 5780 5778 5778 5776 5775
5651 5654 5657 5659 5661 5663 5665 5667 5673 5676 5680 5686 5691 5697 5702 5707 5712 5717 5722 5726 5730 5735 5739 5743 5746 5750 5753 5757 5760 5763 5766 5768 5770 5771 5772 5773 5773 5773 5772 5772 5772 5772 5771 5771 5770 5769 5768 5767 5765
5649 5652 5654 5656 5657 5658 5660 5661 5666 5669 5673 5679 5684 5689 5694 5699 5704 5708 5713 5717 5721 5725 5729 5732 5736 5740 5743 5746 5750 5753 5755 5758 5760 5761 5762 5763 5763 5763 5762 5761 5761 5761 5761 5760 5760 5759 5758 5756 5755
5647 5649 5650 5651 5652 5654 5656 5657 5661 5664 5669 5673 5677 5681 5686 5690 5694 5699 5703 5707 5711 5715 5719 5722 5726 5730 5733 5736 5739 5742 5745 5747 5749 5750 5750 5751 5752 5753 5752 5751 5751 5751 5750 5750 5749 5749 5747 5746 5745
5644 5645 5647 5646 5647 5649 5652 5652 5656 5661 5664 5668 5672 5675 5679 5682 5685 5689 5693 5698 5701 5705 5709 5713 5716 5720 5723 5726 5729 5731 5734 5736 5738 5739 5740 5741 5741 5742 5742 5742 5742 5741 5741 5740 5739 5738 5737 5736 5735
5640 5642 5643 5643 5643 5645 5647 5648 5653 5656 5658 5661 5664 5668 5671 5674 5677 5681 5685 5688 5692 5695 5699 5702 5706 5709 5712 5715 5718 5720 5723 5724 5726 5728 5729 5730 5730 5731 5731 5731 5732 5731 5730 5730 5730 5729 5727 5726 5725
5637 5638 5640 5641 5640 5642 5643 5646 5649 5651 5653 5655 5657 5660 5663 5666 5669 5672 5676 5679 5682 5685 5688 5691 5695 5699 5701 5704 5706 5709 5711 5713 5715 5716 5718 5718 5720 5720 5721 5721 5721 5721 5721 5720 5719 5718 5718 5717 5715
5635 5636 5636 5636 5636 5636 5639 5641 5644 5645 5647 5649 5651 5654 5656 5659 5661 5663 5666 5669 5672 5674 5678 5680 5684 5688 5691 5693 5696 5698 5700 5702 5704 5705 5707 5708 5709 5709 5710 5711 5711 5711 5711 5710 5709 5709 5708 5706 5706
5631 5632 5632 5632 5633 5633 5634 5639 5639 5640 5641 5643 5645 5647 5649 5651 5652 5655 5657 5660 5662 5665 5667 5670 5674 5677 5680 5683 5686 5688 5690 5691 5693 5694 5696 5697 5698 5699 5700 5700 5701 5701 5701 5700 5699 5699 5698 5697 5695
5627 5628 5628 5629 5630 5630 5630 5636 5634 5635 5635 5636 5638 5639 5641 5643 5644 5646 5648 5650 5653 5655 5657 5661 5664 5667 5669 5672 5674 5676 5678 5680 5682 5684 5685 5686 5687 5688 5689 5689 5690 5690 5690 5690 5689 5688 5687 5686 5685